EN

Hourly Weather Wilkowek

Today, 30 September, Wednesday

Time Temperature Precipitation Wind Pressure Humidity
00:00 +11°C° 0 mm 3 mps 745 mmHg 91%
01:00 +11°C° 0 mm 3 mps 745 mmHg 92%
02:00 +11°C° 0 mm 3 mps 745 mmHg 92%
03:00 +11°C° 0 mm 3 mps 744 mmHg 92%
04:00 +12°C° 0 mm 2 mps 744 mmHg 92%
05:00 +11°C° 0 mm 3 mps 744 mmHg 92%
06:00 +11°C° 0 mm 3 mps 745 mmHg 91%
07:00 +11°C° 0 mm 3 mps 745 mmHg 91%
08:00 +13°C° 0 mm 4 mps 745 mmHg 87%
09:00 +14°C° 0 mm 4 mps 745 mmHg 82%
10:00 +15°C° 0 mm 4 mps 745 mmHg 77%
11:00 +15°C° 0 mm 4 mps 744 mmHg 75%
12:00 +17°C° 0 mm 4 mps 744 mmHg 72%
13:00 +17°C° 0 mm 4 mps 743 mmHg 69%
14:00 +17°C° 0 mm 4 mps 743 mmHg 68%
15:00 +17°C° 0 mm 4 mps 743 mmHg 67%
16:00 +17°C° 0 mm 4 mps 743 mmHg 67%
17:00 +15°C° 0 mm 4 mps 743 mmHg 69%
18:00 +15°C° 0 mm 4 mps 743 mmHg 72%
19:00 +14°C° 0 mm 4 mps 743 mmHg 74%
20:00 +13°C° 0 mm 4 mps 742 mmHg 76%
21:00 +13°C° 0 mm 3 mps 742 mmHg 77%
22:00 +12°C° 0 mm 3 mps 742 mmHg 79%
23:00 +12°C° 0 mm 3 mps 742 mmHg 80%

Tomorrow, 1 October, Thursday

Time Temperature Precipitation Wind Pressure Humidity
00:00 +12°C° 0 mm 3 mps 741 mmHg 81%
01:00 +12°C° 0 mm 3 mps 741 mmHg 82%
02:00 +12°C° 0.1 mm 3 mps 741 mmHg 84%
03:00 +12°C° 0.1 mm 3 mps 740 mmHg 86%
04:00 +12°C° 0.1 mm 3 mps 740 mmHg 88%
05:00 +11°C° 0.5 mm 3 mps 740 mmHg 90%
06:00 +11°C° 0.5 mm 3 mps 740 mmHg 92%
07:00 +11°C° 0.5 mm 3 mps 739 mmHg 94%
08:00 +12°C° 0.2 mm 3 mps 739 mmHg 93%
09:00 +12°C° 0.2 mm 3 mps 739 mmHg 92%
10:00 +12°C° 0.2 mm 3 mps 739 mmHg 90%
11:00 +14°C° 0 mm 2 mps 739 mmHg 88%
12:00 +14°C° 0 mm 2 mps 738 mmHg 85%
13:00 +14°C° 0 mm 2 mps 738 mmHg 83%
14:00 +14°C° 0.1 mm 2 mps 738 mmHg 84%
15:00 +14°C° 0.1 mm 2 mps 738 mmHg 86%
16:00 +14°C° 0.1 mm 1 mps 738 mmHg 87%
17:00 +13°C° 0.1 mm 1 mps 738 mmHg 88%
18:00 +13°C° 0.1 mm 1 mps 738 mmHg 89%
19:00 +13°C° 0.1 mm 1 mps 738 mmHg 89%
20:00 +13°C° 0 mm 1 mps 738 mmHg 90%
21:00 +12°C° 0 mm 1 mps 738 mmHg 90%
22:00 +12°C° 0 mm 1 mps 738 mmHg 90%
23:00 +12°C° 0 mm 1 mps 738 mmHg 91%

Day after tomorrow, 2 October, Friday

Time Temperature Precipitation Wind Pressure Humidity
00:00 +12°C° 0 mm 1 mps 738 mmHg 92%
01:00 +11°C° 0 mm 1 mps 738 mmHg 93%
02:00 +11°C° 0 mm 1 mps 738 mmHg 94%
03:00 +11°C° 0 mm 1 mps 738 mmHg 94%
04:00 +11°C° 0 mm 1 mps 738 mmHg 95%
05:00 +10°C° 0 mm 2 mps 738 mmHg 94%
06:00 +12°C° 0 mm 2 mps 738 mmHg 94%
07:00 +12°C° 0 mm 2 mps 738 mmHg 94%
08:00 +12°C° 0 mm 3 mps 738 mmHg 87%
09:00 +14°C° 0 mm 3 mps 738 mmHg 80%
10:00 +16°C° 0 mm 3 mps 739 mmHg 74%
11:00 +16°C° 0 mm 3 mps 739 mmHg 71%
12:00 +17°C° 0 mm 4 mps 739 mmHg 68%
13:00 +18°C° 0 mm 4 mps 739 mmHg 65%
14:00 +17°C° 0 mm 4 mps 738 mmHg 66%
15:00 +17°C° 0 mm 4 mps 738 mmHg 67%
16:00 +17°C° 0 mm 4 mps 738 mmHg 68%
17:00 +15°C° 0 mm 5 mps 738 mmHg 71%
18:00 +14°C° 0 mm 5 mps 738 mmHg 75%
19:00 +13°C° 0 mm 5 mps 738 mmHg 78%
20:00 +14°C° 0 mm 5 mps 738 mmHg 78%
21:00 +14°C° 0 mm 6 mps 737 mmHg 78%
22:00 +14°C° 0 mm 6 mps 737 mmHg 78%
23:00 +14°C° 0 mm 6 mps 737 mmHg 77%

3 October, Saturday

Time Temperature Precipitation Wind Pressure Humidity
00:00 +14°C° 0 mm 6 mps 736 mmHg 76%
01:00 +14°C° 0 mm 6 mps 736 mmHg 75%
02:00 +14°C° 0 mm 6 mps 736 mmHg 74%
03:00 +14°C° 0 mm 6 mps 735 mmHg 73%
04:00 +14°C° 0 mm 7 mps 735 mmHg 71%
05:00 +14°C° 0 mm 7 mps 735 mmHg 73%
06:00 +15°C° 0 mm 7 mps 734 mmHg 74%
07:00 +15°C° 0 mm 7 mps 734 mmHg 75%
08:00 +16°C° 0 mm 7 mps 734 mmHg 70%
09:00 +18°C° 0 mm 7 mps 734 mmHg 64%
10:00 +21°C° 0 mm 8 mps 734 mmHg 59%
11:00 +22°C° 0 mm 8 mps 734 mmHg 57%
12:00 +23°C° 0 mm 8 mps 733 mmHg 55%
13:00 +24°C° 0 mm 8 mps 733 mmHg 53%
14:00 +23°C° 0 mm 7 mps 733 mmHg 55%
15:00 +23°C° 0 mm 6 mps 733 mmHg 58%
16:00 +22°C° 0 mm 6 mps 732 mmHg 61%
17:00 +22°C° 0 mm 6 mps 732 mmHg 61%
18:00 +21°C° 0 mm 7 mps 732 mmHg 62%
19:00 +20°C° 0 mm 7 mps 732 mmHg 63%
20:00 +20°C° 0 mm 7 mps 732 mmHg 63%
21:00 +20°C° 0 mm 7 mps 731 mmHg 63%
22:00 +20°C° 0 mm 7 mps 731 mmHg 63%
23:00 +20°C° 0 mm 7 mps 731 mmHg 62%

4 October, Sunday

Time Temperature Precipitation Wind Pressure Humidity
00:00 +20°C° 0 mm 7 mps 730 mmHg 62%
01:00 +20°C° 0 mm 7 mps 730 mmHg 61%
02:00 +20°C° 0 mm 7 mps 730 mmHg 61%
03:00 +20°C° 0 mm 7 mps 730 mmHg 62%
04:00 +20°C° 0 mm 7 mps 730 mmHg 63%
05:00 +19°C° 0 mm 6 mps 731 mmHg 65%
06:00 +17°C° 0 mm 6 mps 732 mmHg 68%
07:00 +15°C° 0 mm 5 mps 733 mmHg 71%
08:00 +16°C° 0 mm 5 mps 734 mmHg 67%
09:00 +18°C° 0 mm 4 mps 734 mmHg 64%
10:00 +19°C° 0 mm 4 mps 735 mmHg 60%
11:00 +19°C° 0 mm 4 mps 736 mmHg 57%
12:00 +20°C° 0 mm 3 mps 736 mmHg 55%
13:00 +20°C° 0 mm 3 mps 737 mmHg 52%
14:00 +20°C° 0 mm 3 mps 737 mmHg 54%
15:00 +20°C° 0 mm 3 mps 737 mmHg 55%
16:00 +20°C° 0 mm 3 mps 737 mmHg 57%
17:00 +19°C° 0 mm 3 mps 737 mmHg 61%
18:00 +17°C° 0 mm 3 mps 737 mmHg 65%
19:00 +16°C° 0 mm 3 mps 737 mmHg 68%
20:00 +16°C° 0 mm 3 mps 737 mmHg 67%
21:00 +15°C° 0 mm 4 mps 737 mmHg 66%
22:00 +15°C° 0 mm 5 mps 737 mmHg 65%
23:00 +15°C° 0 mm 5 mps 737 mmHg 65%

5 October, Monday

Time Temperature Precipitation Wind Pressure Humidity
00:00 +15°C° 0 mm 6 mps 737 mmHg 65%
01:00 +14°C° 0 mm 6 mps 737 mmHg 64%
02:00 +14°C° 0 mm 6 mps 736 mmHg 64%
03:00 +14°C° 0 mm 5 mps 736 mmHg 64%
04:00 +14°C° 0 mm 5 mps 735 mmHg 64%
05:00 +14°C° 0.1 mm 5 mps 735 mmHg 67%
06:00 +14°C° 0.1 mm 5 mps 735 mmHg 70%
07:00 +14°C° 0.1 mm 5 mps 735 mmHg 74%
08:00 +15°C° 0 mm 6 mps 735 mmHg 67%
09:00 +17°C° 0 mm 7 mps 734 mmHg 61%
10:00 +18°C° 0 mm 8 mps 734 mmHg 54%
11:00 +20°C° 0 mm 8 mps 734 mmHg 53%
12:00 +20°C° 0 mm 8 mps 734 mmHg 51%
13:00 +21°C° 0 mm 7 mps 734 mmHg 50%
14:00 +20°C° 0 mm 7 mps 734 mmHg 52%
15:00 +19°C° 0 mm 6 mps 734 mmHg 55%
16:00 +17°C° 0 mm 5 mps 734 mmHg 58%
17:00 +17°C° 0 mm 4 mps 735 mmHg 62%
18:00 +15°C° 0 mm 4 mps 735 mmHg 67%
19:00 +14°C° 0 mm 3 mps 735 mmHg 71%
20:00 +14°C° 0.1 mm 3 mps 735 mmHg 73%
21:00 +14°C° 0.1 mm 2 mps 736 mmHg 75%
22:00 +14°C° 0.1 mm 2 mps 736 mmHg 77%
23:00 +13°C° 0.1 mm 1 mps 736 mmHg 79%
Show more

We Need Your Consent

Meteoprog and our Service Providers may store and access personal data such as cookies, device identifiers or other similar technologies on your device and process such data to personalise content and ads, as well as provide social media features and to analyse the traffic.

  • Store and/or access information on your device

    Cookies, device identifiers or other information can be stored or accessed on your device for the purposes indicated above.

  • Personalised ads and content, ad and content measurement, audience insights, and products development

    Ads and content can be personalised based on a profile. More data can be added to better personalise ads and content. Ad and content performance can be measured. Insights about the audience who saw the ads and content can be derived. Such data can be used to develop or improve user’s experience, systems and software.

By clicking ‘I Agree’ you will allow the use of indicated cookies, device identifiers, web beacons or other similar technologies. Your settings can be changed in the browser on your device.

For certain purposes, legitimate interests may be relied on, rather than consent. You can read more about this in our Privacy and Cookie Policy.